Regional Weather Roundup
Issued by NWS State College, PA

Home | Current Version | Previous Version | Text Only | Print | Product List | Glossary On
Versions: 1 2 3 4 5 6 7 8 9 10 11 12 13 14 15 16 17 18 19 20 21 22 23 24 25 26 27 28 29 30 31 32 33 34 35 36 37 38 39 40 41 42 43 44 45 46 47 48 49 50
000
ASUS41 KCTP 040403
RWRCTP

REGIONAL WEATHER ROUNDUP
NATIONAL WEATHER SERVICE STATE COLLEGE PA
1100 PM EST TUE MAR 03 2015

Note: "fair" indicates few or no clouds below 12,000 feet with no
significant weather and/or obstructions to visibility.

* = STATION THAT DOES NOT REPORT PRECIPITATION /E.G. RAIN...SNOW...ETC/
    THUNDER OR FOG.

PAZ002>004-007>009-013>016-020>023-029>032-040500-
WESTERN PENNSYLVANIA

CITY           SKY/WX    TMP DP  RH WIND       PRES   REMARKS
ERIE           CLOUDY    38  33  82 W21G35    29.72R
MEADVILLE        N/A     37  35  92 W10       29.71R
FRANKLIN*      CLOUDY    39  36  87 W16G29    29.74S
NEW CASTLE     CLOUDY    40  40 100 SW9       29.76R
BEAVER COUNTY  NOT AVBL
BUTLER*        CLOUDY    43  41  93 W12       29.77R
PITTSBURGH INT LGT RAIN  46  45  96 W9G21     29.76R FOG
PITTSBURGH     LGT RAIN  47  42  83 W15G24    29.74R
INDIANA*       FOG       45  45 100 W6        29.77R VSB 1/4
LATROBE        LGT RAIN  48  48 100 SW7       29.76R
WASHINGTON CO* CLOUDY    48  46  93 W12G18    29.78R
$$

PAZ004>006-010>012-017>019-024>028-033>037-041-042-045-046-049>053-040500-
CENTRAL PENNSYLVANIA

CITY           SKY/WX    TMP DP  RH WIND       PRES   REMARKS
BRADFORD       CLOUDY    37  34  89 SW8G17    29.66S FOG
DUBOIS         FOG       37  36  96 W8        29.72R VSB 1/4
CLEARFIELD     MIX PCPN  32  31  96 N3        29.73F VSB 3/4
JOHNSTOWN      LGT RAIN  47  46  97 W14G21    29.70S VSB 1/2
ALTOONA        LGT RAIN  33  31  92 W3        29.75F FOG
STATE COLLEGE  MIX PCPN  32  31  96 CALM      29.77S
WILLIAMSPORT   SLEET     29  24  82 E9        29.79F
SELINSGROVE    FRZ RAIN  31  27  85 SW6       29.84F
FT INDIANTOWN  FRZ DRZL  30  28  93 S2        29.85F FOG
CAPITAL CITY   CLOUDY    32  27  81 S3        29.85F
HARRISBURG     CLOUDY    32  28  85 VRB5      29.85F
YORK           CLOUDY    34  29  82 SW6       29.85F
$$

PAZ038>040-043-044-047-048-054-055-060>062-067>071-040500-
EASTERN PENNSYLVANIA

CITY           SKY/WX    TMP DP  RH WIND       PRES   REMARKS
SCRANTON       CLOUDY    30  25  81 SW5       29.78S
MOUNT POCONO   CLOUDY    27  24  89 SW12G21   29.73F
ALLENTOWN      FRZ RAIN  33  29  85 SW7       29.86F
QUAKERTOWN*    CLOUDY    32  32 100 CALM      29.87F
READING        LGT RAIN  33  30  88 S5        29.87F
LANCASTER      CLOUDY    33  30  88 SW7       29.87F
COATESVILLE    CLOUDY    34  32  93 SW3       29.87F
POTTSTOWN      MIX PCPN  32  32 100 S5        29.89F
BLUE BELL      CLOUDY    34  32  93 CALM      29.89F
DOYLESTOWN     MIX PCPN  31  31 100 SW6       29.88F
WILLOW GROVE   NOT AVBL
NORTH PHILA    LGT RAIN  35  30  82 SW9       29.93F
PHILADELPHIA   LGT RAIN  33  31  92 SW13      29.93F
$$


USA.gov is the U.S. government's official web portal to all federal, state and local government web resources and services.